Three Rivers, MI

6:14 PM EDT on April 21, 2018 (GMT -0400)
Three Rivers Municipal-Haines

Weather History for KHAI - March, 2014

Change the Weather History Date:

Monday, March 3, 2014

  Actual Average Record
Temperature  
Mean Temperature 0 °F -  
Max Temperature 13 °F 43 °F 72 °F (1974)
Min Temperature -13 °F 24 °F -13 °F (2014)
Degree Days  
Heating Degree Days 65    
Moisture  
Dew Point -8 °F    
Average Humidity 60    
Maximum Humidity 79    
Minimum Humidity 36    
Precipitation  
Precipitation 0.00 in - - ()
Sea Level Pressure  
Sea Level Pressure 30.42 in    
Wind  
Wind Speed 3 mph (NNE)    
Max Wind Speed 7 mph    
Max Gust Speed -    
Visibility 10 miles    
Events      
Averages and records for this station are not official NWS values.
T = Trace of Precipitation, MM = Missing Value Source: NWS Daily Summary

Daily Weather History Graph

Daily Weather History Graph

Search for Another Location

Airport or City:

Astronomy

Mar. 03, 2014 Rise Set
Actual Time 7:14 AM EST 6:34 PM EST
Civil Twilight 6:46 AM EST 7:02 PM EST
Nautical Twilight 6:13 AM EST 7:35 PM EST
Astronomical Twilight 5:41 AM EST 8:07 PM EST
Moon 8:19 AM EST (3/3) 9:40 PM EST (3/3)
Length of Visible Light 12h 16m
Length of Day
11h 20m
Waxing Crescent, 8% of the Moon is Illuminated
Mar 3
Waxing Crescent
Mar 8
First Quarter
Mar 16
Full
Mar 23
Last Quarter
Mar 30
New

Hourly Weather History & Observations

Time (EST) Temp. Windchill Dew Point Humidity Pressure Visibility Wind Dir Wind Speed Gust Speed Precip Events Conditions
12:15 AM 5.2 °F -3.8 °F -2.6 °F 70% 30.36 in 10.0 mi NNW 4.6 mph - N/A   Clear
12:35 AM 4.8 °F -2.3 °F -2.9 °F 70% 30.36 in 10.0 mi North 3.5 mph - N/A   Clear
12:55 AM 4.5 °F -2.7 °F -3.1 °F 71% 30.37 in 10.0 mi North 3.5 mph - N/A   Clear
1:15 AM 4.3 °F -6.5 °F -3.6 °F 70% 30.36 in 10.0 mi North 5.8 mph - N/A   Clear
1:35 AM 4.3 °F -7.8 °F -4.2 °F 68% 30.37 in 10.0 mi North 6.9 mph - N/A   Clear
1:55 AM 3.9 °F -8.2 °F -4.9 °F 67% 30.37 in 10.0 mi North 6.9 mph - N/A   Clear
2:15 AM 3.7 °F -8.4 °F -5.3 °F 66% 30.38 in 10.0 mi North 6.9 mph - N/A   Clear
2:35 AM 3.2 °F -6.2 °F -5.6 °F 67% 30.37 in 10.0 mi North 4.6 mph - N/A   Clear
2:55 AM 1.6 °F -6.0 °F -6.2 °F 70% 30.36 in 10.0 mi North 3.5 mph - N/A   Clear
3:14 AM 0.9 °F -8.9 °F -7.1 °F 69% 30.36 in 10.0 mi North 4.6 mph - N/A   Clear
3:35 AM 2.8 °F -8.2 °F -5.3 °F 69% 30.36 in 10.0 mi North 5.8 mph - N/A   Clear
3:55 AM 2.1 °F -5.4 °F -6.0 °F 69% 30.35 in 10.0 mi North 3.5 mph - N/A   Clear
4:15 AM 0.9 °F - -7.1 °F 69% 30.35 in 10.0 mi Calm Calm - N/A   Clear
4:35 AM -0.2 °F - -7.4 °F 72% 30.36 in 10.0 mi Calm Calm - N/A   Clear
4:55 AM -2.2 °F - -8.9 °F 73% 30.38 in 10.0 mi Calm Calm - N/A   Clear
5:15 AM -2.6 °F - -8.0 °F 78% 30.38 in 10.0 mi Calm Calm - N/A   Clear
5:35 AM -7.6 °F - -13.0 °F 77% 30.39 in 10.0 mi Calm Calm - N/A   Clear
5:55 AM -5.6 °F - -10.7 °F 79% 30.38 in 10.0 mi Calm Calm - N/A   Clear
6:15 AM -9.4 °F - -15.3 °F 75% 30.39 in 10.0 mi Calm Calm - N/A   Clear
6:35 AM -6.9 °F - -12.5 °F 77% 30.40 in 10.0 mi Calm Calm - N/A   Clear
6:55 AM -7.1 °F - -12.6 °F 77% 30.41 in 10.0 mi Calm Calm - N/A   Clear
7:15 AM -8.5 °F - -14.3 °F 76% 30.41 in 10.0 mi Calm Calm - N/A   Clear
7:35 AM -12.5 °F - -18.8 °F 74% 30.42 in 1.8 mi Calm Calm - N/A   Haze
7:55 AM -13.4 °F - -19.5 °F 74% 30.42 in 10.0 mi Calm Calm - N/A   Clear
8:15 AM -9.9 °F - -15.9 °F 75% 30.43 in 2.5 mi Calm Calm - N/A   Haze
8:35 AM -7.8 °F - -13.4 °F 77% 30.44 in 10.0 mi Calm Calm - N/A   Clear
8:55 AM -3.3 °F -11.6 °F -8.3 °F 79% 30.44 in 10.0 mi NE 3.5 mph - N/A   Clear
9:15 AM 1.2 °F -10.1 °F -4.0 °F 79% 30.44 in 10.0 mi NE 5.8 mph - N/A   Clear
9:34 AM 2.5 °F -7.0 °F -3.5 °F 76% 30.45 in 10.0 mi NE 4.6 mph - N/A   Clear
9:55 AM 4.3 °F -4.9 °F -6.9 °F 60% 30.46 in 10.0 mi NE 4.6 mph - N/A   Clear
10:15 AM 4.8 °F -4.3 °F -7.8 °F 56% 30.46 in 10.0 mi NNE 4.6 mph - N/A   Clear
10:35 AM 5.7 °F -3.2 °F -7.6 °F 54% 30.47 in 10.0 mi NNE 4.6 mph - N/A   Clear
10:55 AM 6.4 °F -0.5 °F -7.6 °F 53% 30.47 in 10.0 mi NNE 3.5 mph - N/A   Clear
11:15 AM 7.2 °F 0.3 °F -8.0 °F 50% 30.47 in 10.0 mi NNE 3.5 mph - N/A   Clear
11:35 AM 7.7 °F 1.0 °F -8.0 °F 49% 30.46 in 10.0 mi NE 3.5 mph - N/A   Clear
11:55 AM 8.2 °F 1.6 °F -8.1 °F 47% 30.47 in 10.0 mi NNE 3.5 mph - N/A   Clear
12:15 PM 8.8 °F 2.2 °F -8.1 °F 46% 30.47 in 10.0 mi NNE 3.5 mph - N/A   Clear
12:35 PM 9.3 °F 2.8 °F -8.1 °F 45% 30.47 in 10.0 mi NNE 3.5 mph - N/A   Clear
12:55 PM 9.7 °F 3.2 °F -7.6 °F 46% 30.46 in 10.0 mi NE 3.5 mph - N/A   Clear
1:15 PM 10.0 °F 3.6 °F -8.5 °F 43% 30.46 in 10.0 mi NNE 3.5 mph - N/A   Clear
1:35 PM 10.4 °F - -9.2 °F 41% 30.46 in 10.0 mi Calm Calm - N/A   Clear
1:55 PM 11.7 °F - -6.7 °F 44% 30.46 in 10.0 mi Calm Calm - N/A   Clear
2:14 PM 11.3 °F - -8.1 °F 41% 30.45 in 10.0 mi Calm Calm - N/A   Clear
2:35 PM 11.3 °F - -8.5 °F 41% 30.44 in 10.0 mi Calm Calm - N/A   Clear
2:55 PM 12.7 °F - -9.8 °F 36% 30.45 in 10.0 mi Calm Calm - N/A   Clear
3:14 PM 12.2 °F - -8.5 °F 39% 30.45 in 10.0 mi Calm Calm - N/A   Clear
3:35 PM 12.2 °F - -8.0 °F 40% 30.45 in 10.0 mi Calm Calm - N/A   Clear
3:55 PM 12.2 °F - -8.5 °F 39% 30.45 in 10.0 mi Calm Calm - N/A   Clear
4:15 PM 12.7 °F - -8.9 °F 38% 30.44 in 10.0 mi Calm Calm - N/A   Clear
4:35 PM 12.9 °F - -8.1 °F 39% 30.44 in 10.0 mi Calm Calm - N/A   Clear
4:55 PM 12.9 °F - -8.0 °F 39% 30.44 in 10.0 mi Calm Calm - N/A   Clear
5:15 PM 13.1 °F - -8.5 °F 38% 30.44 in 10.0 mi Calm Calm - N/A   Clear
5:35 PM 12.4 °F - -7.1 °F 42% 30.44 in 10.0 mi Calm Calm - N/A   Clear
5:55 PM 12.7 °F 6.7 °F -8.1 °F 39% 30.44 in 10.0 mi SSE 3.5 mph - N/A   Clear
6:15 PM 12.2 °F - -9.0 °F 38% 30.44 in 10.0 mi Calm Calm - N/A   Clear
6:35 PM 9.5 °F - -8.0 °F 45% 30.43 in 10.0 mi Calm Calm - N/A   Clear
6:54 PM 7.9 °F - -5.3 °F 55% 30.43 in 10.0 mi Calm Calm - N/A   Clear
7:15 PM 8.8 °F - -9.6 °F 43% 30.44 in 10.0 mi Calm Calm - N/A   Clear
7:35 PM 6.6 °F - -6.3 °F 55% 30.44 in 10.0 mi Calm Calm - N/A   Clear
7:54 PM 5.7 °F - -6.9 °F 56% 30.43 in 10.0 mi Calm Calm - N/A   Clear
8:15 PM 3.4 °F - -6.0 °F 65% 30.41 in 10.0 mi Calm Calm - N/A   Clear
8:35 PM 3.0 °F - -9.0 °F 57% 30.39 in 10.0 mi Calm Calm - N/A   Clear
8:55 PM 0.1 °F - -10.7 °F 60% 30.40 in 10.0 mi Calm Calm - N/A   Clear
9:15 PM -2.6 °F - -9.9 °F 71% 30.39 in 10.0 mi Calm Calm - N/A   Clear
9:35 PM -0.4 °F - -9.0 °F 67% 30.40 in 10.0 mi Calm Calm - N/A   Clear
9:55 PM -0.0 °F - -7.1 °F 72% 30.39 in 10.0 mi Calm Calm - N/A   Clear
10:15 PM 0.1 °F - -8.3 °F 68% 30.39 in 10.0 mi Calm Calm - N/A   Clear
10:35 PM -1.3 °F - -8.1 °F 73% 30.39 in 10.0 mi Calm Calm - N/A   Clear
10:55 PM -0.8 °F - -6.7 °F 76% 30.38 in 10.0 mi Calm Calm - N/A   Clear
11:15 PM -0.4 °F - -6.9 °F 74% 30.38 in 10.0 mi Calm Calm - N/A   Clear
11:34 PM -0.6 °F - -8.0 °F 71% 30.38 in 10.0 mi Calm Calm - N/A   Clear
11:55 PM -2.0 °F - -8.9 °F 73% 30.37 in 10.0 mi Calm Calm - N/A   Scattered Clouds